Staples, MN

3:16 AM CDT on June 29, 2017 (GMT -0500)
Staples Municipal

Weather History for KSAZ - October, 2011

Change the Weather History Date:

Saturday, October 8, 2011

  Actual Average Record
Temperature  
Mean Temperature 58 °F -  
Max Temperature 62 °F 57 °F 82 °F (2010)
Min Temperature 55 °F 37 °F 17 °F (2000)
Degree Days  
Heating Degree Days 6    
Growing Degree Days 8 (Base 50)    
Moisture  
Dew Point 51 °F    
Average Humidity 75    
Maximum Humidity 88    
Minimum Humidity 63    
Precipitation  
Precipitation 0.00 in - - ()
Sea Level Pressure  
Sea Level Pressure 30.01 in    
Wind  
Wind Speed 5 mph (SW)    
Max Wind Speed 8 mph    
Max Gust Speed -    
Visibility 10 miles    
Events      
Averages and records for this station are not official NWS values.
T = Trace of Precipitation, MM = Missing Value Source: NWS Daily Summary

Daily Weather History Graph

Daily Weather History Graph

Search for Another Location

Airport or City:

Trip Planner

Search our weather history database for the weather conditions in past years. The results will help you decide how hot, cold, wet, or windy it might be!

Date:

Astronomy

Oct. 08, 2011 Rise Set
Actual Time 7:26 AM CDT 6:46 PM CDT
Civil Twilight 6:56 AM CDT 7:16 PM CDT
Nautical Twilight 6:21 AM CDT 7:50 PM CDT
Astronomical Twilight 5:46 AM CDT 8:25 PM CDT
Moon 5:04 PM CDT (10/8) 4:05 AM CDT (10/8)
Length of Visible Light 12h 19m
Length of Day
11h 19m
Waxing Gibbous, 90% of the Moon is Illuminated
Oct 8
Waxing Gibbous
Oct 11
Full
Oct 19
Last Quarter
Oct 26
New
Nov 2
First Quarter

Hourly Weather History & Observations

Time (CDT) Temp. Dew Point Humidity Pressure Visibility Wind Dir Wind Speed Gust Speed Precip Events Conditions
1:01 AM 60.8 °F 53.6 °F 77% 29.82 in 10.0 mi South 8.1 mph - N/A   Overcast
2:41 AM 60.8 °F 51.8 °F 72% 29.86 in 10.0 mi South 6.9 mph - N/A   Mostly Cloudy
5:01 AM 57.2 °F 51.8 °F 82% 29.89 in 10.0 mi South 5.8 mph - N/A   Clear
7:41 AM 55.4 °F 50.0 °F 82% 29.95 in 10.0 mi South 5.8 mph - N/A   Scattered Clouds
8:01 AM 55.4 °F 51.8 °F 88% 29.96 in 10.0 mi South 5.8 mph - N/A   Clear
8:41 AM 57.2 °F 50.0 °F 77% 29.98 in 10.0 mi SW 6.9 mph - N/A   Mostly Cloudy
9:21 AM 55.4 °F 51.8 °F 88% 29.96 in 10.0 mi West 2.3 mph - N/A   Mostly Cloudy
9:41 AM 57.2 °F 53.6 °F 88% 29.98 in 10.0 mi SSE 3.5 mph - N/A   Mostly Cloudy
10:01 AM 57.2 °F 51.8 °F 82% 29.98 in 10.0 mi South 3.5 mph - N/A   Scattered Clouds
10:21 AM 59.0 °F 51.8 °F 77% 30.00 in 10.0 mi SW 5.8 mph - N/A   Clear
11:21 AM 57.2 °F 51.8 °F 82% 30.03 in 10.0 mi SW 3.5 mph - N/A   Scattered Clouds
11:41 AM 59.0 °F 50.0 °F 72% 30.02 in 10.0 mi SW 3.5 mph - N/A   Scattered Clouds
12:01 PM 59.0 °F 50.0 °F 72% 30.03 in 10.0 mi WSW 6.9 mph - N/A   Mostly Cloudy
12:41 PM 60.8 °F 50.0 °F 68% 30.06 in 10.0 mi WSW 6.9 mph - N/A   Overcast
1:01 PM 60.8 °F 50.0 °F 68% 30.05 in 10.0 mi WSW 4.6 mph - N/A   Overcast
1:21 PM 60.8 °F 50.0 °F 68% 30.04 in 10.0 mi SSW 4.6 mph - N/A   Overcast
2:01 PM 62.6 °F 50.0 °F 63% 30.03 in 10.0 mi South 4.6 mph - N/A   Overcast
2:21 PM 62.6 °F 50.0 °F 63% 30.03 in 10.0 mi SW 5.8 mph - N/A   Overcast
3:01 PM 62.6 °F 50.0 °F 63% 30.04 in 10.0 mi WSW 5.8 mph - N/A   Overcast
3:41 PM 62.6 °F 50.0 °F 63% 30.05 in 10.0 mi South 4.6 mph - N/A   Overcast
4:41 PM 62.6 °F 51.8 °F 68% 30.05 in 10.0 mi SSE 4.6 mph - N/A   Overcast
5:01 PM 62.6 °F 51.8 °F 68% 30.05 in 10.0 mi SSW 1.2 mph - N/A   Overcast
5:21 PM 62.6 °F 51.8 °F 68% 30.05 in 10.0 mi South 2.3 mph - N/A   Overcast
6:41 PM 60.8 °F 53.6 °F 77% 30.07 in 10.0 mi WNW 2.3 mph - N/A   Overcast
7:01 PM 60.8 °F 53.6 °F 77% 30.07 in 10.0 mi Calm Calm - N/A   Overcast
7:41 PM 60.8 °F 53.6 °F 77% 30.09 in 10.0 mi WNW 3.5 mph - N/A   Overcast
10:41 PM 57.2 °F 51.8 °F 82% 30.15 in 10.0 mi NW 3.5 mph - N/A   Overcast